Temp
10 11 11 12 12 12 13 13 13 12 12 12 12 12 12 12 12 13 13 14 14 14 13 13 14 14 14 14 14 14 14 14 14 14 14 14 14 14 14 14 15 15 15 15 15 15 15 14 14 15 15 15 15 15 15 15 15 15 15 14 15 15 15 14 14 13 13 13 14
10 10 11 12 12 12 13 13 13 13 12 12 12 12 12 12 12 12 12 13 13 13 13 13 13 13 13 13 14 14 14 14 14 14 14 14 14 14 14 14 14 14 15 15 15 15 14 14 14 14 15 15 14 14 14 15 14 14 14 14 14 15 14 14 13 13 13 13 13
9 10 10 11 11 12 12 13 13 12 12 12 12 12 12 12 11 11 11 12 12 12 12 12 12 13 13 13 13 13 13 13 13 13 13 13 14 13 13 13 14 14 14 14 15 15 14 14 14 14 14 14 14 14 14 14 14 14 14 14 14 14 14 14 13 13 13 13 13
10 9 9 10 10 11 12 12 12 12 12 11 11 11 12 12 11 11 11 11 11 12 12 12 12 12 12 13 13 13 13 13 13 13 13 13 13 13 13 13 13 13 14 14 14 14 14 14 14 14 14 14 14 14 14 14 14 14 14 14 13 13 13 13 13 13 13 13 13
10 10 10 9 10 10 11 11 11 11 11 11 11 11 12 12 11 11 10 11 11 11 11 12 12 12 12 12 12 12 13 13 13 13 13 13 13 13 13 13 13 13 13 13 13 13 13 13 14 14 13 13 13 14 14 14 14 13 13 13 13 13 13 13 13 13 13 13 13
10 10 10 10 10 10 10 11 11 11 11 11 11 11 12 12 12 11 11 11 11 11 12 12 12 12 12 12 12 12 12 12 12 12 13 13 13 13 13 13 13 13 13 13 13 13 13 13 13 13 13 13 13 13 13 13 13 13 13 13 12 12 13 13 13 13 13 13 13
9 9 10 10 10 10 10 10 10 11 11 11 11 11 12 12 12 11 11 11 11 11 12 12 12 12 11 11 11 11 11 11 12 12 12 12 12 12 12 12 12 12 12 12 12 12 11 12 12 12 12 12 12 12 12 13 13 13 13 12 12 12 12 12 12 12 12 12 12
8 9 9 9 9 10 10 10 10 11 11 11 11 11 11 11 12 11 11 10 10 10 11 11 11 11 11 11 10 10 10 10 11 11 11 11 11 11 11 11 11 11 11 11 10 11 11 11 12 12 12 12 12 12 11 12 12 12 12 12 12 11 11 11 11 11 11 11 11
9 9 9 9 9 9 10 10 10 10 11 11 11 11 10 10 11 11 11 10 10 10 10 10 10 10 10 10 10 10 10 10 10 10 10 10 10 10 10 10 10 10 10 10 10 10 11 11 11 11 12 12 12 11 11 11 11 12 11 11 11 11 11 10 10 10 10 10 10
8 8 9 9 9 9 10 10 10 10 10 10 10 10 10 10 10 10 10 10 9 9 9 9 9 9 9 9 9 9 9 9 9 9 9 10 10 10 10 10 10 10 10 10 10 10 10 11 11 11 11 11 11 11 10 10 10 11 11 10 10 10 10 9 9 9 9 9 10
7 7 8 8 8 9 9 9 9 9 9 9 9 9 9 9 9 9 9 9 9 9 8 8 8 8 9 9 9 9 9 9 9 9 9 9 9 9 9 9 10 10 10 10 10 10 10 10 10 11 10 10 10 10 9 9 9 10 9 9 9 9 9 9 9 9 9 9 9
6 7 7 7 7 8 8 8 8 8 8 8 8 8 8 8 8 8 8 8 8 8 8 7 8 8 8 8 8 9 9 9 9 9 9 9 9 9 9 9 9 9 9 9 9 9 9 10 10 10 10 9 9 9 9 8 8 8 8 8 8 8 8 8 8 8 8 8 8
5 6 6 6 6 7 7 7 7 7 7 7 7 7 7 7 7 7 8 8 8 8 7 7 7 7 8 8 8 8 8 8 8 8 8 8 8 8 8 8 8 9 9 9 9 9 9 9 9 9 9 9 8 8 8 8 8 7 7 7 7 7 7 7 7 7 7 7 7
4 5 5 5 6 6 6 6 6 6 6 6 6 6 7 7 7 7 7 7 8 7 7 7 7 7 7 7 8 8 8 8 8 8 7 7 7 7 8 8 8 8 8 8 8 8 8 8 8 8 8 8 8 7 7 7 7 7 6 6 6 6 6 6 6 6 6 6 6
3 4 4 5 5 5 5 5 5 6 6 6 6 6 6 6 6 7 7 7 7 7 7 7 7 7 7 7 7 7 7 7 7 7 7 7 7 7 7 7 7 7 7 8 8 8 8 7 7 7 7 7 7 7 7 7 6 6 6 5 5 5 5 5 5 5 5 5 5
3 3 3 4 4 4 5 5 5 5 5 5 6 6 6 6 6 6 7 7 7 7 7 7 6 6 6 6 7 7 7 7 7 7 7 6 6 6 6 6 6 7 7 7 7 7 7 7 7 7 7 7 6 6 6 6 6 5 5 5 5 4 4 4 4 4 4 4 4
3 3 3 3 3 3 4 4 4 4 5 5 5 6 6 6 6 6 6 7 7 7 7 6 6 6 6 6 6 6 6 6 6 6 6 6 6 6 6 6 6 6 6 6 6 6 6 6 6 6 6 6 5 5 5 5 5 4 4 4 4 4 4 3 3 3 3 4 4
3 3 3 3 3 3 3 3 3 4 4 4 5 5 5 6 6 6 6 6 6 6 6 6 5 5 5 5 5 5 5 5 5 5 5 5 5 5 5 5 5 5 5 5 5 5 5 5 5 5 5 5 5 4 4 4 4 4 3 3 3 3 3 3 3 3 3 3 3
2 2 2 3 3 3 3 3 3 3 4 4 5 5 5 5 5 5 5 5 5 6 6 5 5 4 5 5 5 5 5 5 5 5 5 4 4 4 4 4 4 4 4 4 4 5 4 4 4 4 4 4 4 4 3 3 3 3 3 3 3 3 3 3 3 3 3 3 4
1 2 2 2 2 3 3 3 3 3 3 4 4 4 4 4 5 5 5 5 4 5 5 5 4 4 4 4 4 4 4 4 4 4 4 4 3 3 3 3 3 3 3 4 4 3 3 3 3 3 3 3 3 3 3 3 3 2 2 3 3 3 3 3 3 3 3 4 4
1 1 1 2 2 2 3 3 3 3 3 4 4 4 4 4 4 4 4 4 4 4 4 4 4 3 3 3 3 3 3 3 3 3 3 3 3 3 3 3 3 3 3 3 3 3 3 2 2 2 3 2 2 2 2 2 2 2 2 2 3 3 3 3 3 3 3 4 4
1 1 1 1 2 2 2 2 2 3 3 3 3 3 3 4 4 4 4 4 4 4 4 3 3 3 2 2 2 2 2 2 2 2 2 2 2 2 2 2 2 2 2 2 2 2 2 2 2 2 2 2 2 2 2 2 2 2 2 3 3 3 3 3 3 3 3 3 3
1 1 1 1 1 2 2 2 2 2 2 2 2 2 2 3 3 3 3 3 3 3 3 2 2 2 2 2 2 2 2 2 2 2 2 2 2 1 1 2 2 2 2 2 2 2 2 2 2 2 2 2 2 2 2 2 2 2 2 2 2 2 2 2 2 2 2 2 2
0 1 1 1 1 1 1 2 2 2 2 1 1 2 2 2 2 2 2 2 2 2 2 2 2 2 2 2 1 1 1 1 1 1 1 1 1 1 1 1 2 2 2 2 2 2 2 2 2 2 2 2 2 2 2 2 2 2 2 2 2 2 1 1 1 1 1 1 1
0 0 0 1 1 1 1 2 2 2 1 1 1 1 1 1 1 1 1 1 2 2 1 1 1 1 1 1 1 1 1 1 1 1 1 1 1 1 1 1 1 1 1 1 1 1 1 1 1 1 1 1 1 1 1 1 1 1 1 1 1 1 1 1 1 1 1 1 1
-0 -0 0 0 1 1 1 1 1 1 1 1 1 1 1 1 1 1 1 1 1 1 1 1 1 1 1 0 0 1 1 1 1 1 1 1 1 1 1 1 0 0 0 0 0 0 1 1 1 1 1 0 0 0 0 0 1 1 0 0 0 0 0 0 0 0 0 1 1
-1 -0 -0 0 0 0 0 0 1 1 1 1 1 1 1 1 1 1 1 0 0 0 0 0 0 0 0 0 0 0 0 0 0 0 0 0 0 0 0 0 0 0 0 0 0 0 0 0 0 0 1 0 0 -0 -0 -1 -1 -0 -0 -0 -0 -0 -0 -0 0 0 0 0 0
-1 -1 -0 -0 -0 -0 -0 -0 -0 0 0 0 0 0 0 0 0 0 0 0 -0 -0 -0 -0 -0 0 0 0 0 0 0 0 0 0 0 0 0 0 0 0 0 0 0 0 0 -0 -0 -0 0 0 1 1 0 0 -0 -1 -1 -1 -1 -1 -1 -0 -0 -0 -0 -0 -0 0 0
-1 -1 -1 -0 -1 -1 -1 -1 -0 -0 -0 -0 -0 -0 -0 -0 -0 -0 -0 -0 -0 -0 -0 -0 -0 -0 -0 -0 -0 0 0 0 0 0 0 0 0 0 0 0 0 0 0 0 0 -0 -0 -0 -0 -0 0 0 0 0 -0 -0 -1 -1 -1 -1 -0 -0 -0 -0 -0 -0 -0 -0 -0
-1 -1 -1 -1 -1 -1 -1 -1 -1 -1 -1 -1 -1 -1 -1 -1 -1 -1 -1 -1 -1 -1 -1 -1 -0 -0 -0 -0 -0 -0 -0 0 0 0 0 0 0 0 0 0 0 0 0 0 -0 -0 -0 -1 -1 -1 -0 0 0 0 -0 -0 -0 -0 -0 -0 -0 -0 -0 -0 -0 -0 -0 -0 -0
-1 -1 -1 -1 -1 -1 -1 -1 -1 -1 -1 -1 -1 -1 -1 -1 -1 -1 -1 -1 -1 -1 -1 -1 -1 -1 -1 -1 -0 -0 -0 -0 -0 -0 0 0 0 0 0 0 0 0 0 0 -0 -0 -1 -1 -1 -1 -1 -0 -0 -0 -0 -0 -0 -0 -0 -0 -0 -1 -1 -1 -1 -1 -1 -1 -1
-1 -1 -1 -1 -1 -1 -1 -1 -0 -0 -0 -1 -1 -1 -1 -1 -1 -1 -1 -1 -1 -1 -1 -1 -1 -1 -1 -1 -1 -1 -1 -0 -0 -0 -0 -0 -0 -0 -0 -0 -0 -0 -0 -0 -0 -1 -1 -1 -1 -1 -0 -0 -0 -0 -0 -0 -0 -0 -0 -0 -1 -1 -1 -1 -1 -1 -1 -1 -1
-1 -1 -1 -1 -1 -1 -1 -1 -1 -0 -0 -1 -1 -1 -1 -1 -1 -1 -1 -1 -1 -1 -1 -1 -1 -1 -1 -1 -1 -1 -1 -1 -1 -0 -0 -0 -0 -0 -0 -0 -0 -0 -0 -0 -1 -1 -1 -1 -1 -1 -0 -0 -0 -0 -0 -0 -0 -0 -1 -1 -1 -1 -1 -1 -1 -1 -1 -1 -1
-1 -1 -1 -1 -1 -1 -1 -1 -1 -1 -1 -1 -1 -1 -1 -1 -1 -1 -1 -1 -1 -1 -1 -1 -1 -1 -1 -1 -1 -1 -1 -1 -1 -1 -1 -1 -0 -0 -0 -0 -0 -0 -0 -1 -1 -1 -1 -1 -1 -1 -1 -1 -1 -1 -1 -1 -1 -1 -1 -1 -1 -1 -1 -1 -2 -2 -2 -2 -2
-1 -1 -1 -1 -1 -1 -1 -1 -1 -1 -1 -1 -1 -1 -1 -1 -1 -1 -1 -1 -1 -1 -1 -1 -1 -1 -1 -1 -1 -1 -1 -1 -1 -1 -1 -1 -1 -1 -1 -1 -1 -1 -1 -1 -1 -1 -2 -2 -2 -1 -1 -1 -1 -1 -1 -1 -1 -1 -1 -1 -2 -2 -2 -2 -2 -2 -2 -2 -2
-1 -1 -1 -1 -1 -1 -1 -1 -1 -1 -1 -1 -1 -1 -1 -1 -1 -1 -1 -1 -1 -1 -1 -1 -1 -1 -1 -1 -1 -1 -1 -1 -1 -1 -1 -1 -1 -1 -1 -1 -1 -1 -1 -1 -1 -1 -2 -2 -2 -1 -1 -1 -1 -1 -1 -1 -1 -2 -2 -2 -2 -2 -2 -2 -2 -2 -2 -2 -2
-2 -1 -1 -1 -1 -1 -1 -1 -1 -1 -1 -1 -1 -1 -1 -1 -1 -1 -1 -1 -1 -1 -1 -1 -1 -1 -1 -1 -1 -1 -1 -1 -1 -1 -1 -1 -1 -1 -1 -1 -1 -1 -1 -1 -1 -2 -2 -2 -2 -2 -2 -2 -2 -2 -2 -2 -2 -2 -2 -2 -2 -2 -2 -2 -2 -2 -2 -2 -2
-2 -2 -1 -1 -1 -1 -1 -1 -1 -1 -1 -1 -1 -1 -1 -1 -2 -1 -1 -1 -1 -1 -1 -1 -1 -1 -1 -1 -2 -2 -2 -1 -1 -1 -1 -1 -1 -1 -1 -1 -1 -1 -1 -1 -2 -2 -2 -2 -2 -2 -2 -2 -2 -2 -2 -2 -2 -2 -2 -2 -2 -2 -2 -2 -2 -2 -2 -3 -2
-2 -2 -2 -1 -1 -1 -1 -1 -1 -1 -1 -1 -1 -1 -1 -1 -2 -2 -1 -1 -1 -1 -1 -1 -2 -2 -2 -2 -2 -2 -2 -2 -2 -2 -2 -2 -2 -2 -2 -2 -2 -2 -2 -2 -2 -2 -2 -2 -2 -2 -2 -2 -2 -2 -2 -2 -2 -2 -2 -2 -2 -3 -3 -3 -3 -3 -3 -3 -3
-2 -2 -2 -2 -1 -1 -1 -1 -1 -1 -1 -1 -1 -1 -1 -2 -2 -2 -2 -1 -1 -1 -1 -2 -2 -2 -2 -2 -2 -2 -2 -2 -2 -2 -2 -2 -2 -2 -2 -2 -2 -2 -2 -2 -2 -2 -2 -3 -2 -2 -2 -2 -2 -2 -2 -2 -2 -2 -3 -3 -3 -3 -3 -3 -3 -3 -3 -3 -3
-2 -2 -2 -2 -2 -1 -1 -1 -1 -1 -1 -1 -1 -1 -1 -2 -2 -2 -2 -2 -2 -2 -2 -2 -2 -2 -2 -2 -2 -2 -2 -2 -2 -2 -2 -2 -2 -2 -2 -2 -2 -2 -2 -2 -2 -2 -2 -3 -3 -2 -2 -3 -3 -3 -2 -2 -2 -3 -3 -3 -3 -3 -3 -3 -3 -3 -3 -3 -3
Height
764 765 765 765 765 765 765 765 765 765 766 766 766 767 768 769 769 770 771 772 772 772 772 773 774 775 776 776 777 777 778 778 779 779 780 780 780 780 780 780 781 781 781 781 782 782 782 782 783 783 783 783 784 784 784 785 785 786 786 787 787 788 788 789 789 790 790 790 791
763 763 763 763 763 763 762 762 763 763 764 764 765 766 767 768 768 770 771 772 772 772 772 773 774 775 776 776 777 777 778 778 778 778 779 779 779 779 780 780 780 780 781 781 781 781 782 782 783 783 783 783 783 784 784 785 785 785 786 786 787 787 788 788 789 789 790 790 790
760 760 760 760 760 760 760 760 761 761 762 763 763 765 765 767 768 769 770 771 772 772 772 773 774 775 775 776 776 777 777 777 777 777 777 777 778 778 779 779 780 780 780 781 781 781 781 782 782 783 783 783 783 783 784 784 785 785 786 786 786 787 787 788 788 789 789 789 790
756 757 757 758 758 758 759 759 760 761 762 762 763 763 764 765 767 769 770 771 771 772 772 772 773 774 775 776 776 777 777 777 776 776 776 776 777 777 778 778 779 780 780 780 781 781 781 781 782 782 783 783 783 783 783 784 785 785 785 785 786 786 787 787 788 788 789 789 789
754 754 755 755 756 757 758 759 760 760 761 762 762 762 763 764 766 767 769 769 770 770 770 770 772 773 775 775 776 776 776 776 775 775 775 775 775 776 777 778 779 779 780 780 780 780 781 781 781 782 782 783 783 783 783 783 784 784 785 785 785 785 786 786 787 787 788 788 789
753 753 754 754 755 756 757 758 759 760 761 762 762 762 762 763 765 766 766 767 767 768 768 770 771 773 774 775 775 775 775 775 775 774 774 774 775 775 776 777 778 779 780 780 780 780 780 780 781 781 782 782 782 782 782 783 783 783 784 785 785 785 785 786 786 786 787 787 788
753 753 753 754 755 755 756 757 759 760 760 761 761 762 762 764 765 765 766 766 767 768 769 770 772 773 774 774 774 774 774 774 774 774 774 774 774 775 775 776 777 778 779 780 780 780 780 780 781 781 782 782 782 782 782 782 783 783 784 785 785 785 785 785 785 785 786 786 786
755 754 754 755 755 755 756 757 758 759 760 761 761 762 763 765 765 766 767 767 768 769 770 771 772 773 773 773 773 773 773 773 774 774 774 774 774 774 775 776 777 778 778 779 780 780 780 780 781 781 781 781 782 782 782 782 783 783 784 784 784 785 785 785 785 785 785 785 786
756 755 755 755 756 756 757 758 758 759 760 761 762 763 765 766 767 768 768 769 770 770 771 771 772 772 772 772 773 773 773 773 774 774 774 774 774 775 775 776 777 777 778 779 780 780 780 780 781 781 781 781 781 782 782 782 782 783 783 783 784 784 784 785 785 785 785 785 786
758 757 757 757 757 757 757 758 759 760 760 761 763 764 765 767 768 769 769 770 771 771 771 771 772 772 772 773 773 773 773 774 774 774 774 774 774 775 775 776 777 778 779 779 780 780 780 780 780 780 781 781 781 782 782 782 782 783 783 783 783 784 784 784 785 785 785 786 786
759 758 758 758 758 758 758 759 760 760 761 762 763 765 766 767 768 769 770 770 770 771 771 772 772 773 773 773 774 774 774 774 774 775 775 775 775 775 776 777 777 778 779 779 780 780 780 780 780 780 780 781 781 782 782 782 782 783 783 783 783 784 784 785 785 785 785 786 787
760 760 760 760 760 760 760 760 760 761 762 763 764 765 767 767 768 769 770 770 770 771 771 773 773 774 774 774 774 774 774 774 775 775 775 775 775 775 776 777 778 778 779 779 779 780 780 780 780 780 780 781 781 782 782 782 783 783 783 783 783 784 784 785 785 785 786 786 787
760 761 761 761 761 761 761 761 762 762 763 764 765 767 768 768 769 770 770 770 770 771 772 773 774 775 775 774 774 774 774 774 774 774 775 775 775 775 776 777 778 778 779 779 779 779 779 780 780 780 780 781 781 782 782 783 783 783 784 784 784 784 785 785 786 786 786 786 787
761 761 762 762 762 762 762 763 763 764 765 766 767 768 769 769 770 772 772 772 771 772 773 774 775 775 775 775 774 774 774 774 774 774 774 775 775 775 776 777 778 778 778 779 779 779 779 780 780 780 780 781 781 782 782 783 783 784 784 785 785 785 785 786 786 787 787 787 788
762 762 762 763 763 763 763 764 764 765 766 767 768 769 769 770 771 772 773 773 772 772 773 774 774 774 774 774 774 773 773 773 774 774 774 775 775 776 776 777 777 778 778 778 779 779 779 780 780 780 780 781 781 782 783 783 783 784 785 785 785 785 786 786 787 787 788 788 789
763 763 763 763 763 764 764 765 765 766 766 767 768 769 769 770 771 772 773 772 772 772 772 773 774 774 774 773 773 773 773 773 773 774 774 775 775 776 777 777 777 778 778 778 779 779 780 780 780 780 781 781 782 782 783 783 784 784 785 785 785 786 786 787 788 788 789 789 790
765 764 764 764 764 764 765 765 766 766 767 767 768 768 769 769 770 771 772 772 772 771 772 773 774 774 773 773 773 773 773 773 774 774 775 775 776 776 777 777 778 778 778 778 779 779 780 780 780 781 781 781 782 783 783 784 784 785 785 785 786 786 787 787 788 789 790 790 790
766 765 765 765 765 765 765 766 766 766 767 767 768 768 769 769 770 771 772 772 772 771 772 773 774 774 773 773 773 774 774 774 774 775 775 776 776 777 777 777 778 778 779 779 779 779 780 780 781 781 781 782 783 783 784 784 785 785 786 786 786 787 787 788 789 790 790 791 792
767 767 766 766 766 766 766 767 767 767 767 768 768 769 769 770 770 771 771 772 772 772 772 773 774 774 774 774 774 774 774 774 774 775 775 776 776 777 777 778 778 779 779 779 780 780 780 781 781 782 782 783 783 784 785 785 785 786 786 787 787 788 788 789 790 791 792 793 793
768 768 768 768 767 767 767 767 767 768 768 768 769 769 770 770 771 771 772 772 772 772 772 773 774 774 775 775 775 775 775 775 775 775 776 776 777 777 778 778 779 779 779 780 780 780 781 781 782 782 783 783 784 785 785 786 786 787 787 788 788 789 790 790 791 792 793 794 794
769 769 769 769 769 769 768 768 768 768 769 769 770 770 771 771 771 772 772 772 772 772 772 773 774 775 775 775 775 775 775 775 775 775 776 777 777 778 778 779 779 779 780 780 781 781 782 782 783 783 784 785 785 785 786 787 788 788 789 789 789 790 790 791 792 794 795 795 795
771 770 770 770 770 770 770 770 770 770 770 770 771 771 771 772 772 772 772 772 772 772 773 774 775 776 776 776 776 776 776 776 776 776 776 777 778 778 779 779 780 780 780 781 782 782 783 783 784 784 785 785 786 787 788 788 789 790 790 790 790 790 791 792 794 795 795 795 795
772 771 771 771 771 771 771 771 771 771 771 772 772 772 772 772 772 772 772 773 773 774 775 776 776 777 777 777 777 777 776 776 776 777 777 778 778 779 780 780 780 781 781 782 783 783 784 784 785 785 786 787 787 788 789 790 790 790 790 790 790 791 792 794 795 795 795 795 795
773 772 772 772 772 772 772 772 772 772 772 773 773 773 773 773 773 773 774 774 775 775 776 777 777 777 777 778 778 778 778 777 777 777 778 779 779 780 781 781 782 782 783 783 784 785 785 785 785 786 787 788 788 789 790 790 791 791 791 791 791 793 794 795 796 796 795 795 795
773 773 773 773 773 773 773 773 773 773 773 774 774 774 774 774 775 775 775 775 776 776 777 777 777 778 778 779 779 779 779 778 778 778 779 780 780 781 782 783 783 783 784 785 785 786 786 786 787 787 788 789 789 790 790 791 791 792 792 792 793 794 795 796 796 796 796 796 797
774 774 774 774 774 774 774 774 774 774 774 774 774 775 775 775 776 776 776 776 777 777 778 778 778 779 780 780 780 780 780 780 780 780 780 781 782 783 783 784 784 785 785 786 786 787 788 788 788 788 789 789 790 790 791 791 792 793 794 794 795 795 796 796 796 796 797 798 798
775 775 775 775 775 775 775 775 775 775 775 775 775 775 776 776 776 777 777 777 778 778 779 779 780 780 781 781 781 781 781 781 781 781 781 782 783 784 785 785 785 786 786 787 788 788 789 789 790 790 790 790 790 790 791 793 794 795 795 796 797 797 797 796 796 797 798 799 799
776 776 776 776 776 776 776 776 776 776 776 776 776 776 776 777 777 777 778 778 779 779 780 780 781 781 782 782 782 782 782 782 782 782 783 784 784 785 786 786 787 787 788 788 789 790 790 790 791 791 791 790 790 791 792 794 795 796 796 797 798 798 798 797 797 798 799 800 800
777 777 777 777 777 777 777 777 777 777 777 777 777 777 778 778 778 778 779 779 780 780 780 781 782 782 782 782 783 783 783 783 783 784 784 785 786 786 787 788 788 789 789 789 790 790 791 791 792 792 792 791 791 792 793 795 796 797 797 798 798 799 799 798 799 799 800 800 801
778 778 778 778 778 778 778 778 779 779 779 779 779 779 779 779 779 780 780 780 781 781 781 782 782 782 783 783 783 783 784 784 785 785 785 786 786 787 788 789 789 790 790 790 790 791 792 792 793 793 793 792 792 793 794 795 797 798 798 799 799 800 800 800 800 800 801 801 802
779 779 779 779 779 779 779 780 780 780 780 780 780 780 780 780 781 781 781 782 782 782 783 783 783 783 784 784 784 785 785 785 786 786 787 787 788 788 789 790 790 790 791 791 791 792 793 793 793 794 794 794 794 794 795 796 797 798 799 799 800 800 801 801 801 802 802 802 803
780 780 780 780 780 780 780 780 780 781 781 781 781 781 781 782 782 782 783 783 783 784 784 784 784 784 785 785 785 786 786 787 787 788 788 789 789 790 790 791 791 791 792 792 792 793 793 794 794 794 795 795 795 795 796 796 797 798 799 800 800 801 801 802 802 803 803 803 804
781 781 781 781 781 781 781 781 782 782 782 782 782 782 783 783 783 784 784 784 785 785 785 785 785 786 786 786 787 787 788 788 789 789 790 790 790 790 791 792 792 792 792 793 793 794 794 795 795 795 795 796 796 796 796 797 797 798 799 800 801 802 802 803 803 803 804 804 804
782 782 782 782 782 782 782 782 783 783 783 783 783 784 784 784 784 785 785 785 786 786 786 786 787 787 787 788 788 789 789 790 790 790 791 791 791 792 792 793 793 793 794 794 794 794 795 795 795 795 796 796 797 797 797 797 798 799 800 800 802 803 803 804 804 804 804 805 805
783 783 783 783 783 783 784 784 784 784 784 784 785 785 785 785 785 786 786 786 787 787 787 788 788 788 789 789 790 790 790 791 791 792 792 792 792 793 793 793 794 794 794 795 795 795 795 795 796 796 797 797 797 798 798 798 799 799 800 801 802 803 804 804 804 805 805 805 805
784 784 784 784 784 785 785 784 784 784 785 785 785 786 786 786 787 787 787 787 788 788 788 789 789 790 790 790 791 791 791 792 792 793 793 793 793 793 794 794 795 795 795 795 795 796 796 796 796 797 797 797 798 798 798 799 799 800 801 801 803 803 804 804 805 805 805 805 805
785 785 785 785 785 785 785 785 785 785 785 786 786 787 787 787 788 788 788 788 789 789 790 790 790 791 791 792 792 792 793 793 793 793 794 794 794 794 795 795 795 795 796 796 796 796 796 797 797 797 797 798 798 798 799 799 800 800 801 802 803 804 804 805 805 805 805 805 805
786 786 786 786 786 786 786 786 786 786 786 787 787 787 788 788 788 789 789 789 790 790 790 791 792 792 793 793 793 794 794 794 794 794 795 795 795 795 795 795 796 796 796 797 797 797 797 797 798 798 798 798 798 799 799 799 800 800 801 802 803 804 804 805 805 805 805 805 805
787 787 786 787 787 787 787 787 787 787 787 788 788 788 789 789 789 790 790 790 790 791 791 792 793 793 794 794 795 795 795 795 795 795 795 795 796 796 796 796 796 797 797 797 797 798 798 798 798 798 799 799 799 799 799 799 800 800 801 802 803 804 804 805 805 805 805 805 805
788 788 787 787 788 788 788 788 788 788 788 788 789 789 789 790 790 790 790 791 791 792 792 793 794 794 795 795 795 795 796 796 796 796 796 796 796 797 797 797 797 798 798 798 798 798 798 798 799 799 799 799 799 799 799 799 800 800 801 802 803 804 804 805 805 805 805 805 805
788 788 788 788 788 788 788 789 789 789 789 789 789 790 790 790 790 791 791 792 792 793 793 794 795 795 796 796 796 796 797 797 797 797 797 797 797 797 798 798 798 798 799 799 799 799 799 799 799 799 799 799 799 799 800 800 800 801 802 803 803 804 804 805 805 805 805 805 805
Wind_Speed
14 16 18 19 20 19 18 17 15 13 12 11 11 10 7 1 3 7 10 12 13 13 13 13 13 13 12 12 12 12 11 11 10 9 8 7 6 6 6 5 4 4 5 5 6 7 7 7 7 8 9 12 14 14 14 14 13 13 13 13 13 13 13 13 13 12 12 11 12
13 14 16 18 19 19 19 18 16 14 12 12 11 8 4 1 5 8 11 14 14 14 15 14 14 13 13 12 12 12 11 11 10 9 7 6 5 4 4 3 4 4 5 6 7 8 8 7 8 8 10 11 12 13 14 14 14 14 14 14 14 14 14 13 13 12 12 13 13
11 12 13 15 17 18 18 18 16 14 12 11 9 6 2 3 7 10 13 15 16 16 16 15 15 14 13 12 11 11 11 11 10 9 8 6 4 3 3 2 3 4 5 6 7 8 8 9 9 10 11 12 13 13 13 14 15 15 15 15 15 15 14 13 13 13 13 13 14
11 11 11 12 14 15 16 16 15 12 11 10 8 6 3 3 7 11 13 15 16 16 15 15 14 13 11 11 10 11 11 10 10 10 9 8 6 6 6 6 6 6 7 7 8 8 8 9 9 11 12 13 14 14 14 15 17 17 17 17 16 15 14 14 14 14 14 15 15
12 12 11 11 11 12 13 13 12 11 9 8 7 6 4 4 6 9 11 13 13 13 12 11 11 10 9 9 10 10 9 9 8 8 8 8 8 8 8 8 8 9 8 8 8 7 7 8 9 10 12 14 14 15 16 17 18 18 18 17 16 15 15 15 15 16 16 17 17
12 11 11 10 9 9 9 10 10 10 9 7 6 5 5 7 7 7 8 9 9 9 9 8 8 7 7 7 8 8 8 6 6 6 6 7 7 8 8 8 8 8 8 7 7 7 7 7 8 10 12 13 14 15 16 17 18 17 17 16 15 15 15 16 17 18 18 19 19
9 10 9 8 7 7 8 9 9 10 9 8 7 6 7 9 10 9 8 8 8 8 8 8 7 7 6 5 5 5 4 3 3 3 4 4 5 5 4 4 5 5 6 6 7 7 7 7 8 9 11 12 12 13 15 16 16 16 15 15 15 15 16 16 17 18 19 20 20
5 6 7 6 7 8 9 10 11 11 11 10 9 9 9 11 12 12 10 9 8 7 7 7 6 5 4 3 3 2 2 2 2 2 1 1 1 0 1 3 4 5 5 6 7 7 8 8 8 9 10 11 11 12 13 13 14 14 15 16 16 16 16 16 17 17 18 19 20
4 5 6 7 8 10 11 12 13 13 13 12 12 12 12 13 14 14 12 10 8 7 7 7 6 5 4 3 2 2 3 3 4 4 4 3 2 2 2 3 4 5 6 6 7 7 8 8 9 9 10 11 11 12 12 12 13 14 15 15 15 15 16 16 16 16 16 17 18
9 9 10 11 12 13 14 15 16 16 16 16 16 16 16 16 15 14 13 11 9 8 8 8 6 5 4 3 2 3 4 4 4 4 4 4 3 2 2 3 4 5 5 6 7 8 8 9 9 10 11 11 12 12 12 12 13 14 15 15 15 15 15 15 15 15 15 15 15
14 14 14 15 16 17 18 19 18 18 19 19 19 18 18 16 15 14 12 11 10 10 9 8 6 5 4 4 4 4 4 4 4 3 3 3 2 2 1 2 4 5 6 7 7 8 8 9 9 10 11 11 12 12 12 12 13 14 14 14 14 15 15 14 14 14 14 14 14
16 16 17 18 19 19 20 21 21 21 21 21 20 19 17 15 14 12 12 11 11 11 9 8 6 5 5 5 5 5 4 4 3 3 2 2 1 1 1 2 4 5 6 7 8 8 8 9 9 10 11 11 12 12 12 12 13 14 14 14 15 15 15 14 14 14 13 13 14
17 18 18 19 20 21 22 22 22 22 22 21 20 19 17 15 13 12 12 12 12 11 10 8 6 5 4 5 5 5 5 4 3 3 3 3 2 2 2 3 4 5 6 7 8 8 8 9 9 10 12 12 12 12 12 13 13 14 14 14 15 15 14 14 14 13 14 14 14
18 19 19 19 20 21 22 22 22 22 22 21 20 19 18 17 15 13 12 12 12 12 10 8 7 6 6 5 5 5 4 4 3 4 4 4 4 4 3 3 4 5 6 7 7 8 9 9 10 11 12 13 13 13 13 13 14 14 14 14 14 14 14 13 13 13 14 15 15
18 18 19 20 20 21 21 22 22 22 22 21 20 19 18 17 15 14 13 12 12 11 10 8 8 8 8 7 6 5 4 4 4 4 4 5 5 5 5 5 5 5 6 7 8 8 9 10 11 11 12 13 14 14 14 14 14 14 15 15 15 15 14 14 14 14 14 15 15
17 17 18 19 20 21 21 21 21 21 21 21 20 19 18 17 16 14 13 12 12 11 9 9 9 9 9 8 6 5 5 4 4 5 5 5 6 6 6 6 6 7 7 8 9 9 10 11 12 12 13 14 14 14 15 15 15 15 15 15 15 16 16 15 15 15 15 16 16
15 16 17 18 19 20 20 21 21 21 21 20 19 18 18 17 15 14 12 11 11 10 10 9 8 8 9 8 7 6 6 6 6 6 6 6 7 7 7 8 8 8 9 9 10 10 11 12 13 13 14 14 15 15 15 15 16 16 16 16 16 16 17 16 16 16 16 16 17
15 15 16 17 18 18 19 20 20 20 20 20 19 18 17 16 15 14 12 11 10 10 9 8 8 8 8 8 7 7 7 7 7 7 7 7 7 8 8 9 9 10 10 10 11 11 12 13 13 14 15 15 16 16 16 16 16 16 17 17 17 17 18 18 17 17 17 17 17
14 15 15 16 16 17 18 18 19 19 19 18 18 17 16 15 14 13 12 11 10 9 9 9 8 8 8 8 8 8 8 8 8 8 9 8 9 9 9 10 10 11 11 11 12 12 13 14 14 15 15 16 16 16 17 17 17 17 18 18 18 18 18 18 18 17 17 17 16
14 14 14 14 15 16 16 17 17 17 17 17 16 15 14 14 13 12 12 12 10 9 9 9 9 9 9 9 9 10 10 10 10 10 10 10 10 11 11 11 12 12 12 12 13 13 14 14 15 15 15 16 17 17 17 18 18 18 19 19 19 19 18 18 17 17 16 15 14
13 14 14 14 14 15 15 15 16 16 16 15 15 14 13 13 12 12 12 11 10 9 9 9 9 10 10 11 11 12 12 12 12 12 12 12 12 12 12 12 13 13 13 14 14 15 15 15 15 16 16 16 17 17 17 18 18 19 19 19 18 17 16 15 14 13 12 12 11
13 13 13 13 14 14 14 14 14 15 15 15 14 14 13 13 13 12 12 11 10 10 10 10 10 11 11 12 13 13 14 14 14 14 14 14 14 14 13 13 14 14 14 15 15 15 15 16 16 15 15 16 16 16 16 17 17 17 17 16 15 14 13 12 11 10 9 9 8
12 13 13 13 14 14 14 14 14 14 15 15 15 14 14 14 14 13 13 12 12 12 12 12 12 12 12 12 13 14 15 15 15 15 15 15 15 14 13 13 14 14 14 14 14 15 15 15 15 15 15 15 15 15 15 15 15 14 14 14 13 12 11 10 10 10 10 10 10
12 12 12 13 13 13 14 14 14 15 15 15 15 15 15 16 15 15 15 14 14 14 14 14 14 13 13 13 14 14 15 16 17 17 16 16 16 15 15 14 14 14 13 13 13 13 13 14 14 14 14 14 14 14 14 13 13 13 13 13 13 13 13 13 13 13 14 15 15
11 12 12 12 13 13 13 14 14 15 16 16 16 16 16 16 16 16 16 16 15 15 15 15 15 15 16 16 16 16 17 17 18 18 18 17 17 16 16 15 15 14 13 12 11 11 12 13 13 14 14 14 14 14 13 13 13 13 13 14 15 16 16 16 16 16 17 18 18
11 12 12 12 13 13 14 14 15 16 16 16 16 16 17 17 17 17 17 18 17 17 17 17 18 18 18 19 19 18 19 19 19 19 19 19 18 17 16 16 16 15 14 13 12 11 11 12 13 13 14 14 14 14 14 14 13 14 14 15 16 17 18 19 19 18 18 18 19
11 12 13 13 13 14 15 15 16 16 17 17 18 18 18 18 18 19 19 19 19 19 19 19 19 20 20 20 20 20 20 20 20 20 19 19 18 18 17 17 16 16 15 14 13 13 12 12 12 13 14 14 15 15 15 15 15 15 16 16 17 18 19 19 19 19 18 18 18
12 12 13 13 14 14 15 15 16 17 18 18 19 19 19 19 20 20 21 21 20 20 20 20 20 21 21 21 21 21 21 21 20 20 20 19 19 18 18 17 17 16 15 15 14 13 13 13 13 14 14 15 16 16 17 17 17 17 17 17 17 17 17 18 18 18 17 17 17
12 13 14 14 14 15 15 16 17 17 18 18 19 20 20 20 20 21 21 21 21 21 20 20 21 21 21 21 21 21 21 21 21 21 20 20 19 19 18 17 17 16 15 15 15 14 14 13 14 14 15 16 17 17 18 17 17 17 17 17 16 16 16 16 16 16 16 16 16
13 14 14 15 15 15 15 16 16 16 17 18 18 19 19 20 20 20 20 20 20 20 20 20 21 21 21 22 22 21 21 21 21 21 21 20 20 20 19 18 17 16 16 15 15 15 14 14 14 15 16 16 17 18 18 18 17 16 16 16 15 15 14 14 14 14 14 14 14
13 14 15 15 15 15 15 15 16 16 17 17 18 18 19 19 19 19 19 19 19 20 20 21 22 22 22 22 22 22 21 21 21 21 21 20 20 19 19 18 17 16 15 15 15 15 14 14 14 15 16 16 17 18 18 17 16 16 15 15 14 14 13 13 13 12 12 12 12
14 14 15 15 15 15 15 15 16 16 17 17 18 18 18 18 18 18 19 19 19 20 21 21 22 22 22 22 22 22 21 21 21 20 20 20 20 19 18 17 16 15 14 14 14 14 14 13 14 14 15 16 16 16 16 16 16 15 14 13 13 13 13 13 12 12 11 11 11
14 14 15 15 15 15 15 16 16 17 18 18 18 18 18 18 18 19 19 19 20 20 21 21 22 22 22 21 21 21 21 21 20 20 20 20 19 18 17 16 15 14 14 14 14 13 13 13 13 13 14 14 15 15 15 15 15 15 14 13 13 12 13 13 13 12 12 11 11
14 14 15 15 15 15 15 16 17 17 18 18 18 18 18 18 19 19 19 20 20 21 21 21 21 21 21 21 21 21 20 20 20 19 19 19 19 18 17 16 15 14 14 14 14 13 13 12 12 12 12 13 13 14 14 15 15 15 15 14 14 14 14 14 13 13 12 12 12
13 14 14 14 14 15 15 16 17 18 18 19 18 18 18 18 19 19 20 20 21 21 21 21 21 21 21 20 20 20 20 19 19 18 18 18 18 17 17 16 15 14 14 14 14 13 13 12 11 10 11 12 12 13 14 14 15 15 16 16 15 15 15 15 14 13 12 12 12
12 13 13 13 14 14 15 16 17 18 19 19 19 18 18 18 19 19 20 20 21 21 21 20 20 20 20 19 19 19 18 18 18 18 17 17 17 17 16 15 14 13 13 13 13 13 12 11 10 10 10 11 12 13 13 14 15 15 16 16 16 15 15 14 13 12 11 10 10
12 12 13 13 13 13 14 15 17 18 19 19 18 18 18 18 19 19 19 20 21 21 21 20 20 19 19 19 18 18 17 17 17 17 17 17 17 16 16 15 14 13 13 12 12 12 11 10 10 10 11 11 12 12 13 14 14 14 15 14 14 13 12 12 11 10 9 8 7
11 12 12 12 12 12 13 14 16 17 18 18 18 19 19 19 19 19 19 20 21 21 21 20 20 19 19 18 18 17 17 17 17 17 17 16 16 16 16 15 14 13 12 12 11 11 10 10 10 10 10 11 12 12 13 13 13 13 13 12 12 11 10 10 9 8 8 7 5
11 11 12 12 12 12 12 13 15 16 17 18 18 19 19 19 19 19 19 19 20 21 21 20 20 19 18 18 17 17 16 16 16 16 16 16 16 15 15 15 14 13 12 11 11 11 10 9 9 9 10 10 11 12 12 12 13 12 12 11 11 10 10 9 9 9 9 8 7
10 11 11 12 12 12 12 13 14 15 16 17 18 19 19 19 19 19 19 19 20 20 20 20 19 18 18 17 17 17 16 16 16 16 16 16 16 15 15 14 13 12 11 10 10 10 9 9 9 9 9 10 10 11 11 12 12 12 12 11 11 11 10 10 9 9 10 9 8
8 9 10 11 11 12 12 12 13 13 14 16 17 18 18 18 19 19 20 20 20 20 20 19 19 18 17 17 17 17 17 17 17 17 17 16 16 15 14 13 12 11 10 9 9 9 9 9 8 8 9 9 9 10 10 11 11 12 11 11 10 10 10 10 9 9 9 9 8
Wind_Direction
258 254 253 253 254 254 256 259 263 270 281 294 305 320 334 340 188 189 189 188 183 177 173 171 171 169 166 160 158 159 163 167 166 163 162 160 159 160 166 182 214 246 269 283 288 291 293 289 261 242 232 227 223 220 219 218 218 219 219 222 226 229 230 230 230 232 234 234 233
262 258 255 253 253 254 255 257 261 270 282 293 304 320 344 101 162 171 175 176 175 172 169 166 165 163 162 161 162 165 170 173 173 173 173 168 162 158 161 175 201 226 246 263 276 284 288 286 275 264 252 241 228 220 220 223 223 221 221 222 225 228 229 229 228 229 231 232 231
265 262 258 255 253 252 252 253 257 267 281 292 301 312 332 150 157 160 162 163 164 164 162 159 159 160 162 164 168 174 181 188 192 195 197 200 206 215 226 235 236 241 247 256 266 276 282 284 279 270 259 248 237 229 227 229 229 227 225 226 227 229 230 230 228 228 230 230 229
266 265 263 260 255 251 249 248 253 262 274 284 290 292 276 190 164 157 156 156 156 156 156 156 158 161 166 172 178 186 194 202 209 212 214 219 228 240 252 261 266 266 264 265 269 275 281 283 279 269 256 245 238 236 235 235 233 230 229 229 231 233 233 233 232 232 232 230 228
269 264 264 262 258 252 248 246 249 253 260 267 274 277 266 229 188 169 162 158 156 156 157 160 164 168 174 183 192 199 205 211 216 219 221 226 233 240 247 254 259 263 266 269 274 279 284 284 277 263 248 237 230 229 232 234 231 229 229 231 233 234 234 233 233 234 233 230 228
275 268 264 261 257 252 246 241 237 236 239 244 248 250 248 241 225 201 179 168 167 171 178 184 187 188 191 196 200 203 204 208 213 219 222 226 230 235 240 244 249 256 262 270 278 284 287 283 269 253 241 230 220 217 221 225 226 226 227 229 232 233 231 229 229 230 229 227 223
274 270 265 260 254 243 232 223 216 214 216 221 225 229 233 235 230 218 200 185 181 186 192 196 197 199 201 199 191 183 179 184 201 212 217 219 223 228 238 250 262 273 281 286 290 289 285 276 257 241 233 227 217 211 210 213 217 222 227 229 231 229 224 219 220 220 219 217 215
255 254 251 245 234 222 213 206 202 202 205 209 214 215 215 216 214 212 208 198 188 183 181 178 174 171 168 158 139 118 97 75 64 71 92 138 168 271 311 314 314 313 308 300 296 290 281 270 251 235 226 223 217 212 208 207 213 219 222 221 221 219 214 209 208 208 208 208 206
183 190 197 199 198 197 196 195 195 195 195 194 195 193 191 192 194 195 195 190 183 170 152 136 130 132 135 131 109 78 55 46 47 52 56 58 49 23 351 332 321 314 307 296 288 281 274 263 247 233 224 218 212 208 205 207 210 212 211 208 205 204 202 200 197 196 196 198 197
140 145 154 162 168 174 177 180 182 184 182 180 179 179 179 180 180 180 179 176 165 145 127 119 121 130 140 137 110 85 70 61 55 54 55 53 44 26 354 326 307 296 286 277 268 263 258 249 235 224 218 215 207 201 199 200 201 199 197 195 191 187 186 187 186 184 183 184 187
126 130 136 142 149 157 161 162 165 167 167 166 167 168 170 170 170 168 166 162 149 137 129 127 133 140 139 131 116 104 93 83 72 66 63 60 52 34 337 298 280 267 256 249 243 238 234 229 222 215 209 207 200 193 188 187 187 184 181 178 177 175 172 172 174 175 174 174 174
121 126 130 135 140 145 148 148 149 151 153 154 156 159 160 159 156 153 150 147 142 137 134 135 137 136 131 126 122 118 113 106 98 93 94 96 96 95 259 260 254 247 237 229 223 218 215 212 211 206 199 194 189 182 177 175 173 170 165 162 164 163 161 159 162 165 166 167 163
119 123 127 130 134 137 139 139 140 141 143 144 146 147 146 142 140 141 142 142 138 134 133 134 135 133 131 129 126 124 121 118 118 121 125 131 139 159 194 223 233 229 222 215 210 203 198 196 197 193 188 181 176 171 168 165 162 158 153 151 152 152 151 150 151 154 156 156 153
114 119 122 126 129 131 132 132 133 135 136 137 137 137 134 132 134 139 142 140 134 131 132 136 139 140 137 134 129 124 121 121 125 129 134 139 148 160 172 189 204 209 207 203 199 193 186 182 182 181 178 173 168 165 163 160 155 150 146 143 141 140 140 140 142 144 144 143 141
105 111 117 122 125 126 126 127 128 130 132 133 133 132 131 131 135 140 141 136 132 131 134 140 142 140 136 133 131 129 127 128 131 134 137 141 150 157 165 173 184 191 192 191 189 186 180 175 172 172 171 168 163 161 158 155 151 146 142 138 134 132 130 130 132 134 133 132 130
97 103 110 116 119 121 122 123 126 128 131 131 133 133 133 133 137 140 139 134 132 132 134 137 141 141 137 134 134 135 136 136 138 140 142 145 150 155 160 164 169 174 178 179 178 177 175 171 167 166 164 162 159 156 153 150 147 142 138 135 133 130 128 127 127 127 127 127 123
95 98 103 108 113 116 118 121 124 127 129 131 133 134 134 135 138 139 138 135 133 130 130 132 139 141 139 137 138 140 140 138 140 143 144 147 151 154 155 156 159 163 167 169 168 168 167 165 162 161 159 156 153 150 148 146 143 140 136 134 133 131 130 129 128 126 125 124 121
96 98 102 105 108 112 115 119 122 125 127 129 131 133 134 136 136 136 136 135 133 129 128 131 137 139 138 136 140 143 143 139 139 142 145 148 152 153 152 151 152 155 158 160 160 160 159 158 157 156 154 151 148 146 145 143 141 138 136 134 132 131 131 130 128 127 125 122 120
95 99 102 105 108 112 115 119 122 124 125 127 128 130 131 132 132 131 131 131 131 129 128 129 131 134 135 134 136 139 140 138 138 141 144 147 150 151 149 147 147 148 150 150 151 152 152 152 151 150 149 147 144 143 141 140 137 135 133 131 129 128 128 127 126 125 124 122 120
94 97 101 105 110 114 117 119 121 122 123 125 126 127 127 128 129 128 127 126 127 126 124 122 124 128 131 133 132 131 131 134 135 137 139 143 144 143 143 143 142 143 143 143 144 144 145 145 145 145 145 143 141 139 137 136 134 131 129 127 126 125 125 125 126 126 127 127 126
95 98 101 107 112 116 119 120 121 122 123 124 126 127 128 129 129 127 125 124 124 122 120 118 124 128 130 129 127 125 124 127 129 130 132 134 134 134 136 138 139 140 140 139 138 138 138 139 140 141 142 142 140 138 136 134 132 130 129 127 126 126 127 128 131 134 138 139 138
99 103 105 109 114 118 121 122 123 124 124 125 127 129 130 130 129 128 127 127 127 125 123 125 130 131 129 128 125 123 123 124 124 125 126 127 126 128 131 134 136 136 135 134 134 134 135 136 137 139 140 141 140 140 139 138 136 135 133 131 130 130 131 134 138 141 143 141 135
106 109 110 113 117 120 122 124 125 124 124 125 126 127 128 127 127 128 129 129 128 128 128 130 130 129 127 126 126 125 124 123 122 122 122 123 122 123 125 128 130 130 130 131 132 133 134 134 135 137 139 140 140 140 141 142 142 140 137 134 132 131 131 132 133 131 126 120 113
111 114 116 118 121 123 125 127 126 125 124 124 124 124 124 124 125 126 127 128 127 128 128 127 126 124 124 123 124 124 123 121 119 117 117 117 117 117 117 119 119 120 121 124 127 131 132 132 132 133 135 136 137 137 139 140 140 139 136 133 131 129 128 127 126 121 116 111 107
114 118 121 122 124 126 129 130 129 128 126 125 125 125 124 124 125 125 125 125 125 125 124 123 122 122 122 121 120 119 118 116 114 112 111 110 110 110 109 107 106 106 107 110 115 121 126 128 129 130 130 130 130 130 131 131 132 132 132 131 131 130 129 127 125 122 119 116 113
117 120 122 124 127 128 130 131 131 131 130 130 129 128 127 126 127 126 125 123 122 122 122 122 121 121 121 119 118 115 113 111 110 109 107 106 106 105 103 101 100 99 100 103 106 111 116 122 126 128 129 128 126 125 124 125 128 130 132 133 134 134 132 129 127 125 125 124 123
117 119 122 125 127 127 127 129 130 130 131 131 130 129 129 129 129 127 125 123 123 123 123 122 121 121 121 119 117 114 112 110 108 107 106 106 105 104 104 103 103 103 105 107 108 111 115 120 125 128 130 129 127 125 124 125 128 131 133 134 136 136 134 131 130 129 130 130 130
116 119 122 124 123 123 124 126 126 127 127 128 128 128 129 129 128 127 125 125 125 124 123 122 122 122 121 119 116 114 112 111 109 108 107 106 106 105 105 106 106 107 109 110 110 112 116 121 125 128 129 128 128 127 128 130 132 134 134 135 136 136 134 133 132 132 133 132 132
117 120 122 122 121 121 122 123 123 123 124 125 126 126 127 127 126 125 125 125 125 123 122 122 123 122 120 117 116 114 113 112 111 111 110 110 109 108 107 107 108 109 110 110 110 111 114 119 124 128 129 128 127 128 130 132 134 133 133 133 133 133 132 132 133 134 134 134 132
118 120 121 121 121 121 121 122 122 123 124 124 124 124 124 123 123 123 123 123 122 122 122 123 122 120 118 116 115 114 113 112 113 113 112 111 110 110 110 109 109 109 109 109 109 109 111 115 120 125 129 130 129 129 130 132 132 132 131 130 130 129 129 130 131 133 134 134 132
118 120 120 120 120 120 120 122 124 125 125 125 124 123 122 121 121 121 121 121 121 122 123 123 121 118 117 116 115 113 112 112 112 112 111 110 109 109 110 110 109 108 108 108 108 109 111 115 120 125 130 132 131 131 131 132 133 132 131 130 129 129 128 129 130 131 132 132 131
119 119 119 118 118 118 120 122 124 126 126 126 126 124 123 122 122 122 123 123 123 123 122 121 119 117 116 115 114 113 112 111 110 110 110 109 109 109 108 108 108 107 107 108 109 110 112 116 122 129 133 134 133 133 133 134 133 133 133 133 134 133 132 130 129 129 128 128 127
121 120 119 116 116 117 119 121 123 125 127 127 127 127 126 126 126 126 126 126 126 124 122 121 119 117 116 114 113 112 111 110 110 110 110 109 109 108 107 106 106 106 107 108 109 111 113 117 125 133 137 138 137 135 135 134 133 132 133 135 137 139 138 135 132 129 126 124 120
123 122 119 117 115 116 118 120 122 124 126 127 128 130 131 131 130 129 129 128 128 126 125 123 121 120 119 118 116 114 113 112 112 111 110 110 108 107 105 105 105 105 106 107 107 109 111 116 126 137 143 144 143 141 138 135 132 131 130 132 136 140 141 138 134 130 127 124 120
127 125 123 120 119 119 120 122 124 125 126 126 128 132 134 134 133 131 131 130 130 128 126 125 124 122 121 121 120 119 117 116 115 113 112 110 108 106 104 104 104 104 105 105 106 107 110 115 125 138 146 148 148 146 143 138 133 130 129 130 132 135 137 137 135 132 130 128 125
131 131 129 126 125 124 125 126 127 127 127 127 129 132 135 135 134 134 133 133 131 128 126 125 124 123 121 120 120 120 120 119 118 116 114 112 110 108 106 105 105 105 105 106 106 107 109 113 121 132 141 147 149 149 146 140 135 131 130 130 130 132 134 135 135 134 133 132 131
135 137 137 136 133 131 130 130 129 128 127 128 130 134 136 136 135 135 137 137 133 130 127 126 125 123 121 120 119 119 120 121 119 117 116 114 112 110 109 107 107 106 106 107 108 109 110 111 114 122 132 140 145 147 145 141 137 134 133 132 131 132 133 135 136 135 133 131 131
138 143 145 144 142 140 137 135 132 129 128 130 133 137 139 139 137 137 139 139 136 132 130 128 125 124 122 121 120 120 120 120 119 117 115 113 112 111 110 108 106 106 106 107 108 109 110 112 112 116 123 131 137 141 142 141 138 136 135 134 133 133 134 135 134 131 124 115 110
138 143 147 149 148 146 144 140 136 133 133 134 137 140 142 142 140 140 141 142 139 136 133 130 127 126 125 124 123 122 121 120 119 117 115 113 111 110 108 106 105 104 105 105 106 108 111 114 116 117 119 123 129 133 136 136 135 133 133 133 133 134 133 132 130 125 117 108 96
136 139 143 145 147 148 146 142 140 138 139 140 141 143 145 145 144 144 145 144 141 139 135 132 130 128 128 127 126 124 122 121 121 119 117 114 112 110 107 105 104 103 103 104 105 107 110 115 121 123 122 121 123 126 129 130 129 128 128 130 131 131 131 131 129 125 119 114 105
138 137 137 139 142 143 143 141 140 142 144 146 146 148 149 151 150 149 147 145 143 140 137 135 133 132 131 129 126 123 121 119 119 119 118 116 114 111 109 107 105 104 103 103 105 107 109 113 120 126 127 125 123 123 125 126 125 125 126 128 130 131 132 133 133 131 127 123 120